Location: Boursonne
(49.2024°N, 3.0468°E)
Time: 00:04:52
(UTC+00:00)

USA 234 - Pass Details

Date: 03 March 2021
Orbit: 1102 x 1105 km, 123.0° (Epoch: 18 April)

Event Time Altitude Azimuth Distance (km) Brightness Sun altitude
Exits shadow 21:27:20 57° 314° (NW) 1,280 3.7 -36.6°
Drops below altitude 10° 21:33:04 10° 262° (W) 2,961 5.9 -37.3°
Sets 21:35:34 0° 259° (W) 3,918 6.6 -37.6°
